Home > Time Zones > World Clock > Weather > India > Churu > Past weeks

Flag for India Weather past 2 weeks in Churu, Rajasthan, India

Now
55 °F

Fog.


Feels Like: 55 °F
Forecast: 49 / 73 °F
Wind: 3 mph from Southeast

Location: Jaipur / Sanganer

Current Time: Dec 21, 2014 at 9:44:16 AM

Latest Report: Dec 21, 2014 at 9:00 AM


Visibility: 1 mi

Pressure: 30.09 "Hg

Humidity: 63%

Dew point: 43 °F

Location of ChuruLocation

Historic Weather in Churu — Graph

°F

Churu temperature yesterday

Maximum temperature yesterday: 73 °F (at 2:30 PM)
Minimum temperature yesterday: 46 °F (at 6:30 AM)
Average temperature yesterday: 60 °F

Past Weeks' High & Low Weather Summary

 TemperatureHumidityPressure
High82 °F (Dec 6, 2:00 PM)100% (Dec 14, 8:00 AM)30.24 "Hg (Dec 14, 8:00 AM)
Low43 °F (Dec 21, 7:00 AM)12% (Dec 11, 3:00 PM)29.71 "Hg (Dec 12, 3:00 PM)
Average62 °F54%30.08 "Hg
* Reported Dec 6 6:30 AM — Dec 21 7:00 AM, Churu, Weather by CustomWeather, © 2014

Note: Actual official high and low records may vary slightly from our data, if they occured in-between our weather recording intervals... More about our weather records

Advertising

Churu weather history for previous 24 hours

 ConditionsComfort  
Time TempWeatherWind HumidityBarometerVisibility
7:00 AM
Dec 21
43 °FFog.No wind87%30.04 "Hg1 mi
6:00 AM45 °FFog.No wind87%30.01 "Hg1 mi
5:00 AM46 °FFog.No wind87%30.01 "Hg1 mi
4:00 AM46 °FFog.No wind87%30.01 "Hg1 mi
1:00 AM48 °FFog.No wind87%30.04 "Hg1 mi
12:00 AM52 °FFog.No wind82%30.07 "Hg1 mi
11:00 PM
Dec 20
54 °FPassing clouds.No wind77%30.07 "Hg1 mi
10:00 PM55 °FPassing clouds.3 mph63%30.09 "Hg1 mi
9:00 PM57 °FPassing clouds.No wind55%30.07 "Hg1 mi
8:00 PM59 °FPassing clouds.1 mph51%30.07 "Hg1 mi
7:00 PM63 °FPassing clouds.No wind42%30.04 "Hg1 mi
6:00 PM64 °FScattered clouds.No wind34%30.04 "Hg1 mi
5:00 PM72 °FScattered clouds.5 mph25%30.04 "Hg2 mi
4:30 PM73 °FScattered clouds.2 mph20%30.04 "Hg2 mi
4:00 PM73 °FScattered clouds.3 mph22%30.04 "Hg2 mi
3:00 PM73 °FScattered clouds.3 mph22%30.04 "Hg2 mi
2:30 PM73 °FScattered clouds.5 mph22%30.07 "Hg2 mi
2:00 PM72 °FScattered clouds.6 mph20%30.07 "Hg2 mi
1:00 PM70 °FScattered clouds.7 mph20%30.09 "Hg2 mi
12:00 PM68 °FScattered clouds.1 mph26%30.15 "Hg1 mi
11:00 AM66 °FScattered clouds.No wind30%30.18 "Hg1 mi
10:00 AM61 °FScattered clouds.3 mph45%30.18 "Hg1 mi
9:00 AM55 °FFog.1 mph59%30.18 "Hg1 mi
Weather by CustomWeather, © 2014

See weather overviewHow to use our weather pages